Date String (YYYY-MM-DD hh:mm:ss) UTC,Instrument flags,Ambient pressure (hPa),Sample flow (lpm),Bypass flow (lpm),Sample temperature (°C),Ambient temperature (°C),ASC tube jacket temperature (°C),LED temperature (°C),Box temperature (°C),Sample RH (%),Span deviation,Mass concentration (μg/m³),Mass concentration (μg/m³),Mass concentration (μg/m³)
DateTimeUTC,F1_M11,P_M11,Q1_M11,Q2_M11,T1_M11,T2_M11,T3_M11,T4_M11,T5_M11,U1_M11,ZSPAN_M11,X0_M11,X2_M11,X1_M11
2022-10-20 06:00:00,,0832.4,4.99,0.00,29.8,28.1,00.0,38.8,31.5,07.1,0000.0,0010.33,0004.17,0003.60
2022-10-20 06:01:00,,0832.4,5.01,0.00,29.8,28.1,00.0,38.8,31.5,07.1,0000.0,0009.78,0004.17,0003.58
2022-10-20 06:02:00,,0832.3,5.01,0.00,29.8,28.1,00.0,38.8,31.6,07.2,0000.0,0009.79,0004.18,0003.56
2022-10-20 06:03:00,,0832.3,5.00,0.00,29.8,28.1,00.0,38.8,31.5,07.1,0000.0,0009.80,0004.20,0003.55
2022-10-20 06:04:00,,0832.3,5.00,0.00,29.8,28.1,00.0,38.7,31.5,07.1,0000.0,0009.75,0004.18,0003.53
2022-10-20 06:05:00,,0832.3,5.00,0.00,29.8,28.1,00.0,38.7,31.5,07.1,0000.0,0009.84,0004.21,0003.53
2022-10-20 06:06:00,,0832.4,5.00,0.00,29.8,28.1,00.0,38.7,31.5,07.0,0000.0,0009.20,0004.22,0003.53
2022-10-20 06:07:00,,0832.3,5.00,0.00,29.8,28.1,00.0,38.7,31.5,07.0,0000.0,0009.21,0004.24,0003.53
2022-10-20 06:08:00,,0832.2,5.00,0.00,29.8,28.1,00.0,38.7,31.5,07.0,0000.0,0009.56,0004.27,0003.54
2022-10-20 06:09:00,,0832.2,5.01,0.00,29.7,28.0,00.0,38.7,31.4,07.0,0000.0,0009.81,0004.33,0003.55
2022-10-20 06:10:00,,0832.3,5.00,0.00,29.7,28.1,00.0,38.7,31.5,07.1,0000.0,0009.48,0004.35,0003.55
2022-10-20 06:11:00,,0832.2,5.00,0.00,29.7,28.1,00.0,38.7,31.5,07.0,0000.0,0009.19,0004.36,0003.57
2022-10-20 06:12:00,,0832.2,5.00,0.00,29.7,28.0,00.0,38.7,31.5,07.1,0000.0,0009.33,0004.35,0003.57
2022-10-20 06:13:00,,0832.2,4.99,0.00,29.7,28.0,00.0,38.7,31.5,07.1,0000.0,0010.26,0004.32,0003.56
2022-10-20 06:14:00,,0832.2,5.00,0.00,29.7,28.0,00.0,38.7,31.5,07.2,0000.0,0010.88,0004.28,0003.55
2022-10-20 06:15:00,,0832.2,4.99,0.00,29.7,28.0,00.0,38.7,31.5,07.2,0000.0,0011.19,0004.30,0003.54
2022-10-20 06:16:00,,0832.1,5.00,0.00,29.7,28.0,00.0,38.6,31.5,07.2,0000.0,0011.16,0004.31,0003.53
2022-10-20 06:17:00,,0832.1,5.00,0.00,29.7,28.0,00.0,38.6,31.5,07.2,0000.0,0011.34,0004.33,0003.51
2022-10-20 06:18:00,,0832.1,5.00,0.00,29.7,28.0,00.0,38.6,31.5,07.1,0000.0,0011.52,0004.32,0003.49
2022-10-20 06:19:00,,0832.1,5.01,0.00,29.7,28.0,00.0,38.6,31.5,07.2,0000.0,0011.65,0004.29,0003.45
2022-10-20 06:20:00,,0832.1,5.00,0.00,29.7,28.0,00.0,38.6,31.5,07.2,0000.0,0011.44,0004.25,0003.43
2022-10-20 06:21:00,,0832.0,5.01,0.00,29.7,28.0,00.0,38.6,31.4,07.2,0000.0,0011.28,0004.22,0003.41
2022-10-20 06:22:00,,0832.1,4.99,0.00,29.7,28.0,00.0,38.6,31.4,07.2,0000.0,0011.59,0004.26,0003.39
2022-10-20 06:23:00,,0832.1,5.01,0.00,29.7,28.0,00.0,38.6,31.4,07.2,0000.0,0012.42,0004.23,0003.37
2022-10-20 06:24:00,,0832.1,5.01,0.00,29.7,28.0,00.0,38.6,31.4,07.2,0000.0,0011.58,0004.23,0003.36
2022-10-20 06:25:00,,0832.1,4.99,0.00,29.7,27.9,00.0,38.6,31.4,07.2,0000.0,0010.92,0004.20,0003.35
2022-10-20 06:26:00,,0832.1,5.01,0.00,29.6,28.0,00.0,38.6,31.4,07.2,0000.0,0010.48,0004.13,0003.34
2022-10-20 06:27:00,,0832.1,5.01,0.00,29.6,28.0,00.0,38.6,31.4,07.3,0000.0,0010.37,0004.10,0003.32
2022-10-20 06:28:00,,0832.0,5.01,0.00,29.6,27.9,00.0,38.6,31.3,07.3,0000.0,0009.99,0004.04,0003.31
2022-10-20 06:29:00,,0832.0,4.99,0.00,29.6,27.9,00.0,38.6,31.3,07.2,0000.0,0010.03,0003.99,0003.31
2022-10-20 06:30:00,,0831.9,4.99,0.00,29.6,27.9,00.0,38.5,31.3,07.3,0000.0,0010.59,0003.95,0003.31
2022-10-20 06:31:00,,0831.9,5.00,0.00,29.6,27.9,00.0,38.5,31.3,07.3,0000.0,0010.73,0003.93,0003.30
2022-10-20 06:32:00,,0831.9,5.00,0.00,29.6,27.8,00.0,38.5,31.3,07.3,0000.0,0010.65,0003.90,0003.29
2022-10-20 06:33:00,,0831.9,5.01,0.00,29.6,27.8,00.0,38.5,31.3,07.3,0000.0,0011.27,0003.86,0003.28
2022-10-20 06:34:00,,0831.9,5.01,0.00,29.6,27.8,00.0,38.5,31.3,07.3,0000.0,0010.63,0003.86,0003.27
2022-10-20 06:35:00,,0832.0,5.01,0.00,29.6,27.8,00.0,38.5,31.3,07.4,0000.0,0010.36,0003.84,0003.25
2022-10-20 06:36:00,,0832.0,5.00,0.00,29.5,27.8,00.0,38.5,31.2,07.4,0000.0,0010.26,0003.88,0003.25
2022-10-20 06:37:00,,0832.0,5.00,0.00,29.5,27.8,00.0,38.5,31.3,07.3,0000.0,0010.20,0003.89,0003.24
2022-10-20 06:38:00,,0832.0,5.00,0.00,29.5,27.8,00.0,38.5,31.3,07.3,0000.0,0010.12,0003.88,0003.24
2022-10-20 06:39:00,,0831.9,4.99,0.00,29.5,27.8,00.0,38.5,31.2,07.3,0000.0,0011.02,0003.93,0003.25
2022-10-20 06:40:00,,0831.9,5.00,0.00,29.5,27.8,00.0,38.5,31.2,07.3,0000.0,0010.89,0003.96,0003.24
2022-10-20 06:41:00,,0831.8,5.01,0.00,29.5,27.7,00.0,38.5,31.2,07.3,0000.0,0010.37,0003.98,0003.25
2022-10-20 06:42:00,,0831.8,4.99,0.00,29.5,27.8,00.0,38.4,31.2,07.3,0000.0,0010.58,0004.00,0003.25
2022-10-20 06:43:00,,0831.8,4.99,0.00,29.5,27.8,00.0,38.4,31.3,07.4,0000.0,0011.16,0004.05,0003.25
2022-10-20 06:44:00,,0831.7,5.00,0.00,29.5,27.8,00.0,38.4,31.3,07.4,0000.0,0010.72,0004.02,0003.25
2022-10-20 06:45:00,,0831.8,5.00,0.00,29.5,27.7,00.0,38.4,31.2,07.4,0000.0,0010.66,0004.05,0003.27
2022-10-20 06:46:00,,0831.8,5.00,0.00,29.5,27.7,00.0,38.4,31.2,07.4,0000.0,0011.14,0004.06,0003.28
2022-10-20 06:47:00,,0831.7,4.98,0.00,29.5,27.8,00.0,38.4,31.3,07.4,0000.0,0011.94,0004.04,0003.28
2022-10-20 06:48:00,,0831.7,4.99,0.00,29.5,27.7,00.0,38.4,31.2,07.3,0000.0,0012.06,0004.06,0003.29
2022-10-20 06:49:00,,0831.7,5.00,0.00,29.5,27.7,00.0,38.4,31.2,07.3,0000.0,0012.51,0004.08,0003.30
2022-10-20 06:50:00,,0831.8,4.99,0.00,29.4,27.7,00.0,38.4,31.3,07.3,0000.0,0011.87,0004.07,0003.30
2022-10-20 06:51:00,,0831.7,5.00,0.00,29.4,27.7,00.0,38.4,31.2,07.3,0000.0,0012.28,0004.06,0003.31
2022-10-20 06:52:00,,0831.7,4.99,0.00,29.4,27.7,00.0,38.4,31.2,07.4,0000.0,0012.00,0004.07,0003.31
2022-10-20 06:53:00,,0831.7,5.01,0.00,29.4,27.7,00.0,38.4,31.2,07.4,0000.0,0011.65,0004.05,0003.31
2022-10-20 06:54:00,,0831.7,5.01,0.00,29.4,27.7,00.0,38.4,31.2,07.4,0000.0,0011.41,0004.01,0003.32
2022-10-20 06:55:00,,0831.7,5.01,0.00,29.4,27.7,00.0,38.3,31.2,07.4,0000.0,0010.98,0004.01,0003.31
2022-10-20 06:56:00,,0831.7,5.00,0.00,29.4,27.7,00.0,38.3,31.1,07.4,0000.0,0010.84,0003.99,0003.30
2022-10-20 06:57:00,,0831.7,5.00,0.00,29.4,27.7,00.0,38.3,31.1,07.4,0000.0,0010.44,0004.02,0003.29
2022-10-20 06:58:00,,0831.7,5.00,0.00,29.4,27.7,00.0,38.3,31.1,07.4,0000.0,0010.29,0004.05,0003.29
2022-10-20 06:59:00,,0831.7,5.01,0.00,29.4,27.6,00.0,38.3,31.0,07.4,0000.0,0010.43,0004.08,0003.28
